sat.trackr.live / text

‹ back to catalog

KUIPER-00537

NORAD 69607 · 2026-140R

PAYLOAD ACTIVE UNKNOWN

§ Identity

Operator
Country
US
Launch date
2026-06-17
Launch site
FRGUI
Launch vehicle
Mass (kg)
RCS (m²)

External: N2YO · Heavens-Above · Gunter

§ Orbital elements

Epoch: 2026-09-19T21:18:18.383328Z

Period
97.30 min
Inclination
51.9013°
Eccentricity
0.0000733
Mean motion
14.79927520 rev/d
Perigee alt
629.0 km
Apogee alt
630.1 km
Semi-major
7,007.7 km
B*
-3.8912e-5
RAAN
321.8263°
Arg perigee
2.8009°
Mean anomaly
357.2957°
Rev number
1,551

§ Raw data

KUIPER-005371 69607U 26140R   26262.88771277 -.00000518  00000+0 -38912-4 0  99982 69607  51.9013 321.8263 0000733   2.8009 357.2957 14.79927520 15512

JSON: /api/v1/satellites/69607 · /tle

For live sub-satellite position, see the globe view (requires WebGL).

§ Visibility from observer

Set your observer location to see the next 7 days of passes ≥ 10°. The values pass through the URL so the page stays shareable.

No JS? Fill the form by hand. The geolocation button needs JavaScript.